     2              OBSERVATION DATA    GPS                 RINEX VERSION / TYPE
teqc 1997Jul24 19970814                                     PGM / RUN BY / DATE
                                                            COMMENT
BIT 2 OF LLI FLAGS DATA COLLECTED UNDER A-S CONDITION       COMMENT
BIT 2 OF LLI FLAGS DATA COLLECTED UNDER A-S CONDITION       COMMENT
Original Marker Name: TORO                                  COMMENT
Campaign Name: HPGN 1991                                    COMMENT
4-Character Station Name: TOR4                              COMMENT
6-Character Antenna Code: TRMSST                            COMMENT
Vertical Measurement Point: TGP                             COMMENT
Vertical Offset to Rinex Ref. Point: 0.0629                 COMMENT
Radial Measurement Point: OGP                               COMMENT
Radial Offset to Rinex Ref. Point: 0.2413                   COMMENT
Antenna Height from Field Measurement: 1.4840 m             COMMENT
Original XYZ: -2689986.3022 -4370896.1744 3775902.0767      COMMENT
New XYZ position is based on association with SCEC monument COMMENT
E1F6I2E6+0041. Position of that monument is believed to be  COMMENT
valid to within 1 m horizontally; vertical accuracy         COMMENT
should be no worse than 3-times this value.                 COMMENT
                                                            COMMENT
Revised Rinex header created by UCSD GPS archive for        COMMENT
GSAC on 30-May-1999 (1999:150) 19:11:56 GMT                 COMMENT
For assistance contact dagnew@ucsd.edu or hjohnson@ucsd.edu COMMENT
                                                            COMMENT
MOUNT TORO RM NO4 TPC 1971                                  MARKER NAME
unknown NATIONAL GEODETIC SURVEY                            OBSERVER / AGENCY
484 TRIMBLE 4000 SST NP 4.30 / SP 4.20                      REC # / TYPE / VERS
18 TR 4000SST L1/L2 GEO                                     ANT # / TYPE
 -2689993.0000 -4370881.0000  3775885.0000                  APPROX POSITION XYZ
        1.4014        0.0000        0.0000                  ANTENNA: DELTA H/E/N
     1     1     0                                          WAVELENGTH FACT L1/2
     3    C1    L1    L2                                    # / TYPES OF OBSERV
     0                                                      INTERVAL
  1991     5    14    23     7   15.000000                  TIME OF FIRST OBS
  1991     5    15     0    19   60.000000                  TIME OF LAST OBS
     0                                                      # OF SATELLITES
                                                            END OF HEADER
 91  5 14 23  7 15.0000000  0  4G13G 2G12G 6
  20401517.367          -0.20717        -0.43531
  21909465.000          -0.74117        -0.13732
  24199513.180          -0.47515
  21012785.719          -0.25917        -0.10432
 91  5 14 23  7 30.0000000  0  4G13G 2G12G 6
  20396582.828      -25934.658 7    -20209.07521
  21911851.508       12523.168 7      9758.74222
  24188143.7504     -59746.96945        -0.19571
  21014466.781        8849.676 7      6895.93622
 91  5 14 23  7 45.0000000  0  4G13G 2G12G 6
  20391672.6254     -51736.22247    -40314.16461
  21914239.6254      25080.10747     19543.35862
  24176773.5864    -119501.63045    -46562.19161
  21016174.570       17809.192 7     13877.35822
 91  5 14 23  8  0.0000000  0  4G13G 2G12G 6
  20386791.523      -77387.952 7    -60302.50121
  21916636.266       37686.871 7     29366.79322
  24165401.8674    -179247.32845    -93117.21361
  21017903.906       26895.139 7     20957.29922
 91  5 14 23  8 15.0000000  0  4G13G 2G12G 6
  20381939.211     -102883.247 7    -80168.94021
  21919048.2424      50350.33547     39234.41862
  24154036.8284    -238977.13245   -139659.84861
  21019656.211       36114.292 7     28141.03922
 91  5 14 23  8 30.0000000  0  4G13G 2G12G 6
  20377115.211     -128239.930 7    -99927.37321
  21921466.266       63052.711 7     49132.35622
  24142672.602     -298708.580 5   -186203.74421
  21021431.172       45448.831 7     35414.68922
 91  5 14 23  8 45.0000000  0  4G13G 2G12G 6
  20372317.734     -153447.113 7   -119569.31321
  21923891.891       75804.961 7     59069.16422
  24131306.7734    -358430.58445   -232740.32061
  21023232.008       54909.589 7     42786.68822
 91  5 14 23  9  0.0000000  0  4G13G 2G12G 6
  20367546.945     -178516.578 7   -139103.93721
  21926325.328       88595.383 7     69035.71122
  24119938.172     -418154.708 5   -279278.52521
  21025055.180       64484.974 7     50248.01522
 91  5 14 23  9 15.0000000  0  4G13G 2G12G 6
  20362802.969     -203445.831 7   -158529.30921
  21928766.992      101426.283 7     79033.79722
  24108574.867     -477878.187 5   -325816.23221
  21026899.469       74177.354 7     57800.50022
 91  5 14 23  9 30.0000000  0  4G13G 2G12G 6
  20358086.922     -228230.659 7   -177842.13621
  21931217.680      114301.898 7     89066.72822
  24097211.9144    -537596.46545   -372349.86061
  21028767.836       83991.094 7     65447.55322
 91  5 14 23  9 45.0000000  0  4G13G 2G12G 6
  20353401.047     -252856.542 7   -197031.11721
  21933679.617      127236.632 7     99145.72822
  24085848.1254    -597294.92645   -418868.09061
  21030660.211       93940.572 7     73200.37822
 91  5 14 23 10  0.0000000  0  4G13G 2G12G 6
  20348740.305     -277346.296 7   -216114.02421
  21936148.047      140207.865 7    109253.16722
  24074490.9844    -656995.93545   -465388.27861
  21032574.344      104003.203 7     81041.36922
 91  5 14 23 10 15.0000000  0  4G13G 2G12G 6
  20344108.273     -301691.964 7   -235084.64821
  21938626.117      153223.485 7    119395.19122
  24063129.5864    -716691.38345   -511904.12761
  21034511.492      114186.937 7     88976.72722
 91  5 14 23 10 30.0000000  0  4G13G 2G12G 6
  20339502.703     -325890.540 7   -253940.66421
  21941109.492      166286.752 7    129574.34122
  24051769.672     -776378.010 5   -558413.13221
  21036476.094      124494.653 7     97008.70322
 91  5 14 23 10 45.0000000  0  4G13G 2G12G 6
  20334925.1564    -349947.35147   -272686.20861
  21943600.922      179392.169 7    139786.34222
  24040413.9224    -836060.91345   -604919.21961
  21038460.836      134921.063 7    105133.16122
 91  5 14 23 11  0.0000000  0  4G13G 2G12G 6
  20330377.125     -373846.261 7   -291308.71421
  21946109.563      192556.292 7    150044.08122
  24029060.2584    -895723.51945   -651409.48261
  21040468.477      145482.512 7    113362.84422
 91  5 14 23 11 15.0000000  0  4G13G 2G12G 6
  20325858.680     -397589.104 7   -309809.61021
  21948623.133      205777.170 7    160346.04722
  24017710.8204    -955367.56845   -697885.30461
  21042504.523      156177.094 7    121696.26722
 91  5 14 23 11 30.0000000  0  4G13G 2G12G 6
  20321370.891     -421175.470 7   -328188.57521
  21951149.898      219055.143 7    170692.50322
  24006365.6414   -1014992.23845   -744346.01961
  21044565.906      167005.424 7    130133.90622
 91  5 14 23 11 45.0000000  0  4G13G 2G12G 6
  20316911.914     -444604.283 7   -346444.77421
  21953691.211      232391.535 7    181084.48122
  23995021.977    -1074596.063 5   -790790.47821
  21046649.9774     177968.61047    138676.63562
 91  5 14 23 12  0.0000000  0  4G13G 2G12G 6
  20312480.625     -467895.168 7   -364593.49521
  21956232.180      245766.470 7    191506.49322
  23983679.930    -1134198.717 5   -837234.04121
  21048760.680      189046.805 7    147308.98022
 91  5 14 23 12 15.0000000  0  4G13G 2G12G 6
  20308076.188     -491041.356 7   -382629.46721
  21958788.219      259186.705 7    201963.80422
  23972342.133    -1193793.138 5   -883671.18021
  21050889.648      200246.734 7    156036.18022
 91  5 14 23 12 30.0000000  0  4G13G 2G12G 6
  20303697.008     -514047.168 7   -400556.06121
  21961349.180      272647.988 7    212453.10222
  23961001.5944   -1253383.32945   -930105.04061
  21053043.453      211564.131 7    164854.91322
 91  5 14 23 12 45.0000000  0  4G13G 2G12G 6
  20299347.328     -536906.063 7   -418368.16621
  21963918.227      286157.216 7    222979.75322
  23949664.266    -1312962.147 5   -976530.00221
  21055223.375      223005.876 7    173770.53922
 91  5 14 23 13  0.0000000  0  4G13G 2G12G 6
  20295022.883     -559631.848 7   -436076.54621
  21966497.617      299700.455 7    233532.90722
  23938324.4844   -1372543.22145  -1022956.76161
  21057417.594      234558.049 7    182772.21322
 91  5 14 23 13 15.0000000  0  4G13G 2G12G 6
  20290729.000     -582199.136 7   -453661.43221
  21969086.805      313303.126 7    244132.37422
  23926991.2034   -1432100.93945  -1069365.28161
  21059642.414      246246.071 7    191879.74822
 91  5 14 23 13 30.0000000  0  4G13G 2G12G 6
  20286461.477     -604623.912 7   -471135.25921
  21971681.898      326949.350 7    254765.77922
  23915660.734    -1491650.885 5  -1115767.76921
  21061891.766      258054.058 7    201080.75922
 91  5 14 23 13 45.0000000  0  4G13G 2G12G 6
  20282222.422     -626899.750 7   -488493.04021
  21974286.656      340645.590 7    265438.16222
  23904329.500    -1551186.389 5  -1162159.00821
  21064163.844      269988.362 7    210380.19722
 91  5 14 23 14  0.0000000  0  4G13G 2G12G 6
  20278012.320     -649024.824 7   -505733.33721
  21976904.453      354393.748 7    276150.99322
  23893004.359    -1610705.235 5  -1208537.25521
  21066459.641      282050.989 7    219779.63222
 91  5 14 23 14 15.0000000  0  4G13G 2G12G 6
  20273827.688     -671015.490 7   -522868.90521
  21979526.109      368177.606 7    286891.64622
  23881678.180    -1670223.536 5  -1254915.08121
  21068775.820      294225.601 7    229266.32422
 91  5 14 23 14 30.0000000  0  4G13G 2G12G 6
  20269670.359     -692861.000 7   -539891.36221
  21982157.844      382007.798 7    297668.40222
  23870355.023    -1729730.572 5  -1301284.13321
  21071115.500      306522.676 7    238848.44122
 91  5 14 23 14 45.0000000  0  4G13G 2G12G 6
  20265542.039     -714557.399 7   -556797.62621
  21984799.891      395888.446 7    308484.47122
  23859033.4694   -1789222.03545  -1347641.04361
  21073479.258      318946.394 7    248529.24522
 91  5 14 23 15  0.0000000  0  4G13G 2G12G 6
  20261440.063     -736113.180 7   -573594.32621
  21987450.320      409811.061 7    319333.24722
  23847715.266    -1848705.975 5  -1393992.08721
  21075866.625      331488.254 7    258302.10322
 91  5 14 23 15 15.0000000  0  4G13G 2G12G 6
  20257365.094     -757529.003 7   -590281.96321
  21990107.391      423775.167 7    330214.35022
  23836396.492    -1908182.746 5  -1440337.55421
  21078273.922      344147.759 7    268166.63822
 91  5 14 23 15 30.0000000  0  4G13G 2G12G 6
  20253316.617     -778800.684 7   -606857.28221
  21992775.133      437785.047 7    341131.12421
  23825080.359    -1967647.654 5  -1486673.77921
  21080704.727      356929.107 7    278126.10422
 91  5 14 23 15 45.0000000  0  4G13G 2G12G 6
  20249295.625     -799930.590 7   -623322.12621
  21995447.617      451838.194 7    352081.61122
  23813764.523    -2027102.854 5  -1533002.43121
  21083160.820      369829.920 7    288178.66822
 91  5 14 23 16  0.0000000  0  4G13G 2G12G 6
  20245303.438     -820909.609 7   -639669.39221
  21998130.359      465943.621 7    363072.83422
  23802453.609    -2086539.139 5  -1579316.34921
  21085642.219      382859.235 7    298331.35822
 91  5 14 23 16 15.0000000  0  4G13G 2G12G 6
  20241338.570     -841746.060 7   -655905.56921
  22000827.172      480093.139 7    374098.41622
  23791147.914    -2145964.439 5  -1625621.70621
  21088142.719      396008.792 7    308577.74822
 91  5 14 23 16 30.0000000  0  4G13G 2G12G 6
  20237399.578     -862445.507 7   -672034.99121
  22003523.844      494281.682 7    385154.40122
  23779841.797    -2205383.755 5  -1671922.39121
  21090666.063      409273.251 7    318913.66822
 91  5 14 23 16 45.0000000  0  4G13G 2G12G 6
  20233489.430     -882995.932 7   -688048.28921
  22006235.367      508521.175 7    396250.09522
  23768538.2034   -2264784.75645  -1718208.79861
  21093216.219      422664.774 7    329348.60322
 91  5 14 23 17  0.0000000  0  4G13G 2G12G 6
  20229607.1954    -903397.18947   -703945.36061
  22008955.281      522811.809 7    407385.63622
  23757235.6884   -2324167.09045  -1764480.70461
  21095787.508      436183.349 7    339882.53822
 91  5 14 23 17 15.0000000  0  4G13G 2G12G 6
  20225754.172     -923641.817 7   -719720.38121
  22011684.148      537161.142 7    418566.92622
  23745942.414    -2383523.138 5  -1810732.09621
  21098384.906      449836.423 7    350521.28122
 91  5 14 23 17 30.0000000  0  4G13G 2G12G 6
  20221930.406     -943736.274 7   -735378.38021
  22014424.148      551562.678 7    429788.88021
  23734648.9454   -2442858.85845  -1856967.64861
  21101008.211      463617.605 7    361259.84722
 91  5 14 23 17 45.0000000  0  4G13G 2G12G 6
  20218134.195     -963684.858 7   -750922.71621
  22017176.320      566012.343 7    441048.34421
  23723363.813    -2502178.255 5  -1903190.49521
  21103652.852      477522.566 6    372094.85822
 91  5 14 23 18  0.0000000  0  4G13G 2G12G 6
  20214364.219     -983494.775 7   -766359.00221
  22019931.695      580503.248 7    452339.94221
  23712075.8364   -2561488.00145  -1949405.82061
  21106323.945      491544.367 7    383020.91622
 91  5 14 23 18 15.0000000  0  4G13G 2G12G 6
  20210622.047    -1003163.324 7   -781685.12621
  22022695.945      595038.003 7    463665.70821
  23700791.766    -2620785.105 5  -1995611.27921
  21109015.344      505685.783 7    394040.18422
 91  5 14 23 18 30.0000000  0  4G13G 2G12G 6
  20206907.695    -1022683.298 7   -796895.47921
  22025472.523      609623.773 7    475031.22621
  23689511.172    -2680062.157 5  -2041801.10621
  21111729.023      519954.003 7    405158.25722
 91  5 14 23 18 45.0000000  0  4G13G 2G12G 6
  20203219.266    -1042062.800 7   -811996.37521
  22028258.664      624252.466 7    486430.19621
  23678231.7664   -2739327.12845  -2087981.54361
  21114464.703      534340.674 6    416368.62522
 91  5 14 23 19  0.0000000  0  4G13G 2G12G 6
  20199559.109    -1061295.324 7   -826982.74121
  22031052.352      638930.578 7    497867.67021
  23666957.234    -2798573.060 5  -2134147.14621
  21117227.156      548852.402 7    427676.44621
 91  5 14 23 19 15.0000000  0  4G13G 2G12G 6
  20195928.086    -1080379.699 7   -841853.67221
  22033854.875      653659.757 7
  23655687.977    -2857798.033 5  -2180296.40621
  21120012.914      563490.808 7
 91  5 14 23 19 30.0000000  0  4G13G 2G12G 6
  20192321.391    -1099331.229 7   -856621.08321
  22036663.773      668424.820 7
  23644421.523    -2917017.176 5  -2226441.12421
  21122819.648      578240.422 6
 91  5 14 23 19 45.0000000  0  4G13G 2G12G 6
  20188743.547    -1118133.489 7   -871272.17521
  22039485.039      683241.889 7    532395.92321
  23633156.914    -2976213.856 5  -2272568.33421
  21125650.938      593117.586 6    462168.72721
 91  5 14 23 20  0.0000000  0  4G13G 2G12G 6
  20185194.211    -1136785.555 7   -885806.23821
  22042314.023      698112.032 7    543983.03321
  23621895.0474   -3035386.82345  -2318677.07961
  21128505.461      608123.345 6    473861.50922
 91  5 14 23 20 15.0000000  0  4G13G 2G12G 6
  20181671.516    -1155299.043 7   -900232.31821
  22045150.945      713023.676 7    555602.48021
  23610636.781    -3094547.529 5  -2364776.28821
  21131383.320      623245.885 6    485645.28121
 91  5 14 23 20 30.0000000  0  4G13G 2G12G 6
  20178174.9694   -1173669.68247   -914547.08561
  22047997.531      727981.418 7    567257.84221
  23599381.3984   -3153691.09845  -2410862.09361
  21134286.070      638489.726 6    497523.57321
 91  5 14 23 20 45.0000000  0  4G13G 2G12G 6
  20174706.234    -1191899.650 7   -928752.24021
  22050850.930      742982.991 7    578947.37021
  23588130.4384   -3212819.42745  -2456936.06261
  21137210.914      653852.619 6    509494.64322
 91  5 14 23 21  0.0000000  0  4G13G 2G12G 6
  20171263.453    -1209991.760 7   -942849.97621
  22053716.156      758025.833 7    590669.04721
  23576881.6174   -3271934.79745  -2502999.91661
  21140154.563      669332.002 6    521556.47322
 91  5 14 23 21 15.0000000  0  4G13G 2G12G 6
  20167848.180    -1227938.041 7   -956834.08121
  22056586.617      773118.090 7    602429.23421
  23565637.6174   -3331028.84645  -2549047.15761
  21143123.664      684936.002 6    533715.41922
 91  5 14 23 21 30.0000000  0  4G13G 2G12G 6
  20164460.344    -1245740.887 7   -970706.41121
  22059467.508      788257.391 7    614226.08021
  23554394.492    -3390103.726 5  -2595079.47121
  21146118.750      700662.085 6    545969.48722
 91  5 14 23 21 45.0000000  0  4G13G 2G12G 6
  20161099.672    -1263399.955 7   -984466.70521
  22062358.172      803444.218 7    626059.95321
  23543156.219    -3449158.651 5  -2641096.21621
  21149131.2504     716510.71046    558319.03861
 91  5 14 23 22  0.0000000  0  4G13G 2G12G 6
  20157767.7974   -1280910.49847   -998111.27461
  22065255.5784     818683.39647    637934.63161
  23531924.3524   -3508188.66446  -2687093.59561
  21152174.680      732486.522 6    570767.70122
 91  5 14 23 22 15.0000000  0  4G13G 2G12G 6
  20154460.180    -1298291.652 7  -1011655.01821
  22068165.086      833955.815 7    649835.20121
  23520692.633    -3567212.597 6  -2733086.17821
  21155231.8524     748570.45946    583300.60762
 91  5 14 23 22 30.0000000  0  4G13G 2G12G 6
  20151181.5864   -1315522.69947  -1025081.79361
  22071079.961      849282.561 7    661778.10221
  23509465.8914   -3626209.04545  -2779057.39161
  21158319.2344     764783.44346    595934.07861
 91  5 14 23 22 45.0000000  0  4G13G 2G12G 6
  20147930.438    -1332607.284 7  -1038394.44321
  22074006.8524     864659.79047    673760.34761
  23498242.273    -3685181.645 6  -2825009.99421
  21161427.359      781121.612 6    608665.09822
 91  5 14 23 23  0.0000000  0  4G13G 2G12G 6
  20144708.414    -1349541.884 7  -1051590.22121
  22076944.445      880091.452 7    685784.99921
  23487025.8444   -3744126.21946  -2870940.77161
  21164561.0234     797588.80746    621496.65061
 91  5 14 23 23 15.0000000  0  4G13G 2G12G 6
  20141513.273    -1366329.051 7  -1064671.11521
  22079889.0234     895574.93547    697850.03461
  23475815.3524   -3803044.99746  -2916851.42661
  21167719.820      814182.346 6    634426.65722
 91  5 14 23 23 30.0000000  0  4G13G 2G12G 6
  20138345.5634   -1382972.81947  -1077640.27561
  22082845.016      911106.413 7    709952.46921
  23464606.3444   -3861941.65346  -2962744.87361
  21170901.375      830898.410 6    647452.13321
 91  5 14 23 23 45.0000000  0  4G13G 2G12G 6
  20135203.211    -1399484.446 7  -1090506.45721
  22085808.195      926674.814 7    722083.67321
  23453401.7034   -3920826.94346  -3008629.45861
  21174102.625      847725.837 6    660564.38921
 91  5 14 23 24  0.0000000  0  4G13G 2G12G 6
  20132088.5084   -1415858.31247  -1103265.30461
  22088779.063      942285.639 6    734247.93321
  23442198.4774   -3979695.02146  -3054500.62061
  21177324.984      864670.075 6    673767.66821
 91  5 14 23 24 15.0000000  0  4G13G 2G12G 6
  20129000.6334   -1432086.15147  -1115910.35861
  22091758.758      957947.066 7    746451.62521
  23430999.8984   -4038537.55346  -3100351.87861
  21180573.789      881739.168 6    687068.23121
 91  5 14 23 24 29.9990000  0  4G13G 2G12G 6
  20125942.190    -1448155.093 7  -1128431.59621
  22094751.394      973670.224 6    758703.41921
  23419811.7224   -4097338.12546  -3146170.44961
  21183848.097      898944.195 6    700474.72622
 91  5 14 23 24 44.9990000  0  4G13G 2G12G 6
  20122909.542    -1464095.411 7  -1140852.61121
  22097749.542      989429.268 6    770983.17721
  23408622.128    -4156132.225 5  -3191983.95321
  21187142.9644     916259.32646    713967.00462
 91  5 14 23 24 59.9990000  0  4G13G 2G12G 6
  20119901.3234   -1479898.67047  -1153166.82561
  22100757.315     1005230.524 6    783295.82621
  23397438.550    -4214908.320 6  -3237783.45221
  21190460.448      933690.698 6    727549.87021
 91  5 14 23 25 14.9990000  0  4G13G 2G12G 6
  20116922.675    -1495555.206 7  -1165366.70921
  22103772.792     1021083.914 6    795649.09321
  23386260.0264   -4273656.33045  -3283561.06061
  21193802.776      951248.120 6    741230.95122
 91  5 14 23 25 29.9990000  0  4G13G 2G12G 6
  20113968.026    -1511077.978 7  -1177462.35821
  22106797.636     1036976.445 6    808032.86821
  23375082.0974   -4332388.77946  -3329326.53861
  21197165.800      968918.550 6    755000.09122
 91  5 14 23 25 44.9990000  0  4G13G 2G12G 6
  20111042.558    -1526455.363 8  -1189444.72821
  22109829.995     1052920.059 6    820456.44321
  23363912.081    -4391093.584 6  -3375070.48121
  21200553.0114     986713.85646    768866.53462
 91  5 14 23 25 59.9990000  0  4G13G 2G12G 6
  20108142.925    -1541689.051 8  -1201315.11321
  22112873.886     1068912.998 6    832918.45321
  23352746.9014   -4449772.19346  -3420794.00161
  21203962.151     1004632.197 6    782828.85522
 91  5 14 23 26 14.9990000  0  4G13G 2G12G 6
  20105272.675    -1556774.425 8  -1213069.93721
  22115928.8864    1084960.06946    845422.63961
  23341587.5974   -4508419.50946  -3466493.15761
  21207393.612     1022678.349 6    796890.76622
 91  5 14 23 26 29.9990000  0  4G13G 2G12G 6
  20102427.784    -1571722.651 8  -1224717.88921
  22118988.605     1101050.337 6    857960.49321
  23330429.7144   -4567046.23246  -3512176.24961
  21210851.550     1040841.317 6    811043.70522
 91  5 14 23 26 44.9990000  0  4G13G 2G12G 6
  20099611.730    -1586524.170 8  -1236251.53021
  22122061.9174    1117193.45246    870539.51561
  23319277.9644   -4625642.36246  -3557835.51661
  21214332.2534    1059130.48046    825294.96861
 91  5 14 23 26 59.9990000  0  4G13G 2G12G 6
  20096820.308    -1601187.861 8  -1247677.76621
  22125141.784     1133380.605 6    883152.85821
  23308132.5034   -4684216.40946  -3603477.57261
  21217834.6124    1077537.11346    839637.76861
 91  5 14 23 27 14.9990000  0  4G13G 2G12G 6
  20094058.401    -1615706.142 8  -1258990.69621
  22128231.948     1149619.558 6    895806.56921
  23296991.7064   -4742760.46546  -3649096.25361
  21221361.089     1096068.860 6    854078.06921
 91  5 14 23 27 29.9990000  0  4G13G 2G12G 6
  20091322.394    -1630084.285 8  -1270194.42921
  22131333.8554    1165905.02646    908496.52361
  23285854.6204   -4801279.44346  -3694695.40161
  21224910.0734    1114720.44846    868611.74862
 91  5 14 23 27 44.9990000  0  4G13G 2G12G 6
  20088611.2534   -1644332.04648  -1281296.56961
  22134438.464     1182227.801 6    921215.54321
  23274722.1984   -4859782.42246  -3740282.07261
  21228479.6904    1133482.40246    883231.42361
 91  5 14 23 27 59.9990000  0  4G13G 2G12G 6
  20085925.620    -1658446.388 8  -1292294.74321
  22137550.042     1198590.898 6    933965.98621
  23263593.0894   -4918266.13346  -3785853.75561
  21232072.800     1152357.636 6    897939.37121
 91  5 14 23 28 14.9990000  0  4G13G 2G12G 6
  20083266.565    -1672422.004 8  -1303184.81821
  22140673.175     1214999.718 6    946752.06221
  23252470.2304   -4976724.80446  -3831405.90461
  21235685.8394    1171351.60846    912739.84162
 91  5 14 23 28 29.9990000  0  4G13G 2G12G 6
  20080632.7534   -1686257.19848  -1313965.48061
  22143806.4174    1231456.17746    959575.24961
  23241349.097    -5035156.250 6  -3876936.84721
  21239323.4804    1190466.02746    927634.16761
 91  5 14 23 28 44.9990000  0  4G13G 2G12G 6
  20078027.667    -1699946.283 8  -1324632.28421
  22146946.480     1247965.965 6    972439.99621
  23230238.847    -5093554.521 6  -3922441.94621
  21242987.331     1209706.540 6    942626.74222
 91  5 14 23 28 59.9990000  0  4G13G 2G12G 6
  20075450.612    -1713490.605 8  -1335186.28521
  22150098.276     1264527.824 6    985345.31721
  23219132.6514   -5151920.55146  -3967921.90761
  21246671.4254    1229071.72946    957716.47462
 91  5 14 23 29 14.9990000  0  4G13G 2G12G 6
  20072899.534    -1726896.215 8  -1345632.20121
  22153257.667     1281135.972 6    998286.70921
  23208031.6904   -5210259.79746  -4013381.00461
  21250377.1054    1248555.75446    972898.80261
 91  5 14 23 29 29.9990000  0  4G13G 2G12G 6
  20070373.870    -1740166.203 8  -1355972.43721
  22156426.347     1297787.339 6   1011261.77221
  23196933.019    -5268575.134 6  -4058821.47921
  21254107.7924    1268155.45546    988171.26462
 91  5 14 23 29 44.9990000  0  4G13G 2G12G 6
  20067873.0264   -1753310.80648  -1366214.97361
  22159601.9334    1314472.18346   1024262.92261
  23185837.3004   -5326876.07246  -4104250.71461
  21257856.6834    1287860.97046   1003526.17962
 91  5 14 23 29 59.9990000  0  4G13G 2G12G 6
  20065399.948    -1766309.837 8  -1376344.07721
  22162788.417     1331210.652 6   1037305.85921
  23174752.9564   -5385142.12946  -4149652.79861
  21261631.3624    1307692.29746   1018979.12861
 91  5 14 23 30 14.9990000  0  4G13G 2G12G 6
  20062951.394    -1779174.291 8  -1386368.31021
  22165982.1204    1347991.64346   1050381.92961
  23163665.480    -5443383.876 6  -4195035.92021
  21265427.831     1327638.520 6   1034521.61022
 91  5 14 23 30 29.9990000  0  4G13G 2G12G 6
  20060529.472    -1791902.170 8  -1396286.12321
  22169183.433     1364817.329 6   1063492.83021
  23152589.245    -5501599.010 6  -4240398.31421
  21269245.956     1347701.533 6   1050155.09622
 91  5 14 23 30 44.9990000  0  4G13G 2G12G 6
  20058136.370    -1804477.235 8  -1406084.86421
  22172396.394     1381704.368 6   1076651.53521
  23141518.550    -5559770.824 6  -4285726.94221
  21273089.9404    1367897.75346   1065892.38061
 91  5 14 23 30 59.9990000  0  4G13G 2G12G 6
  20055770.112    -1816912.230 8  -1415774.45621
  22175621.026     1398640.430 6   1089848.43921
  23130453.972    -5617911.224 6  -4331031.10521
  21276956.1284    1388214.71446   1081723.74662
 91  5 14 23 31 14.9990000  0  4G13G 2G12G 6
  20053425.761    -1829228.845 8  -1425371.80521
  22178849.144     1415603.892 6   1103066.69721
  23119393.214    -5676041.615 6  -4376327.46421
  21280839.0654    1408630.77346   1097632.33462
 91  5 14 23 31 29.9990000  0  4G13G 2G12G 6
  20051110.730    -1841400.735 8  -1434856.38221
  22182085.5424    1432620.78746   1116326.59061
  23108338.995    -5734135.629 6  -4421595.47121
  21284747.8624    1429171.84646   1113638.33761
 91  5 14 23 31 44.9990000  0  4G13G 2G12G 6
  20048820.5894   -1853432.66748  -1444231.89961
  22185331.440     1449686.596 6   1129624.60121
  23097289.519    -5792197.262 6  -4466838.25621
  21288681.6834    1449833.57346   1129738.35162
 91  5 14 23 31 59.9990000  0  4G13G 2G12G 6
  20046558.370    -1865319.066 8  -1453494.01621
  22188591.456     1466807.155 6   1142965.27221
  23086246.792    -5850220.677 6  -4512051.25521
  21292635.8084    1470621.36746   1145936.60762
 91  5 14 23 32 14.9990000  0  4G13G 2G12G 6
  20044323.761    -1877063.299 8  -1462645.35521
  22191858.065     1483979.302 6   1156346.14421
  23075215.120    -5908208.554 6  -4557236.56821
  21296617.1514    1491532.13646   1162230.67762
 91  5 14 23 32 29.9990000  0  4G13G 2G12G 6
  20042115.831    -1888667.014 8  -1471687.19421
  22195136.8004    1501201.21646   1169765.78961
  23064184.5504   -5966162.42246  -4602395.36661
  21300617.605     1512564.021 6   1178619.13422
 91  5 14 23 32 44.9990000  0  4G13G 2G12G 6
  20039934.464    -1900129.375 8  -1480618.89421
  22198422.3394    1518474.32146   1183225.32961
  23053161.683    -6024080.769 6  -4647526.50421
  21304643.9874    1533718.09746   1195102.79561
 91  5 14 23 32 59.9990000  0  4G13G 2G12G 6
  20037779.394    -1911455.773 8  -1489444.64821
  22201720.722     1535793.366 6   1196720.66521
  23042149.542    -6081968.580 6  -4692633.83121
  21308689.362     1554988.903 6   1211677.42122
 91  5 14 23 33 14.9990000  0  4G13G 2G12G 6
  20035647.9094   -1922654.22848  -1498170.70361
  22205022.050     1553150.270 6   1210245.49421
  23031136.9094   -6139833.56546  -4737723.38461
  21312759.925     1576368.532 6   1228336.85022
 91  5 14 23 33 29.9990000  0  4G13G 2G12G 6
  20033542.394    -1933717.443 8  -1506791.37721
  22208334.698     1570552.881 6   1223805.94821
  23020131.519    -6197667.620 6  -4782788.82821
  21316850.3474    1597864.51146   1245086.92861
 91  5 14 23 33 44.9990000  0  4G13G 2G12G 6
  20031463.6594   -1944642.24348  -1515304.20161
  22211656.0114    1588004.30546   1237404.43261
  23009131.2694   -6255467.27946  -4827827.46461
  21320962.7064    1619479.95346   1261930.10261
 91  5 14 23 33 59.9990000  0  4G13G 2G12G 6
  20029409.9484   -1955435.08448  -1523714.19361
  22214983.480     1605498.322 6   1251036.11621
  22998139.019    -6313238.516 6  -4872843.95221
  21325099.612     1641208.375 6   1278861.31022
 91  5 14 23 34 14.9990000  0  4G13G 2G12G 6
  20027381.5034   -1966092.37548  -1532018.56361
  22218322.8084    1623038.86646   1264704.04361
  22987152.183    -6370977.251 6  -4917835.12721
  21329255.5814    1663053.52946   1295883.47962
 91  5 14 23 34 29.9990000  0  4G13G 2G12G 6
  20025379.2614   -1976617.42548  -1540219.89661
  22221668.636     1640622.676 6   1278405.68521
  22976170.1834   -6428686.24946  -4962803.12761
  21333433.8624    1685012.16546   1312994.06861
 91  5 14 23 34 44.9990000  0  4G13G 2G12G 6
  20023402.284    -1987004.142 8  -1548313.42521
  22225023.573     1658256.048 6   1292145.95621
  22965196.5424   -6486359.03146  -5007742.89361
  21337632.6594    1707090.50546   1330197.94661
 91  5 14 23 34 59.9990000  0  4G13G 2G12G 6
  20021453.5974   -1997246.34448  -1556294.35161
  22228391.0894    1675945.16046   1305929.64761
  22954227.745    -6543989.085 6  -5052649.37921
  21341859.5814    1729294.46046   1347499.70061
 91  5 14 23 35 14.9990000  0  4G13G 2G12G 6
  20019534.3154   -2007334.18348  -1564154.99761
  22231769.784     1693700.008 6   1319764.57121
  22943271.8234   -6601566.06846  -5097514.50261
  21346109.4014    1751634.13146   1364907.20561
 91  5 14 23 35 29.9990000  0  4G13G 2G12G 6
  20017638.870    -2017291.858 8  -1571914.21021
  22235155.417     1711496.666 6   1333632.07121
  22932320.8864   -6659113.89746  -5142356.90561
  21350383.0344    1774085.17746   1382401.49761
 91  5 14 23 35 44.9990000  0  4G13G 2G12G 6
  20015768.9174   -2027118.55848  -1579571.37361
  22238551.370     1729336.209 6   1347532.99321
  22921373.776    -6716631.033 6  -5187175.39521
  21354675.9334    1796648.57646   1399983.32761
 91  5 14 23 35 59.9990000  0  4G13G 2G12G 6
  20013927.6904   -2036796.62748  -1587112.71261
  22241955.370     1747236.431 6   1361481.19721
  22910440.0264   -6774099.23946  -5231955.75461
  21358995.3624    1819342.34246   1417666.75661
 91  5 14 23 36 14.9990000  0  4G13G 2G12G 6
  20012111.675    -2046339.578 8  -1594548.77121
  22245372.698     1765183.962 6   1375466.26121
  22899509.698    -6831531.622 6  -5276708.21121
  21363337.4014    1842152.76346   1435441.07462
 91  5 14 23 36 29.9990000  0  4G13G 2G12G 6
  20010321.9014   -2055746.16548  -1601878.56961
  22248795.6834    1783180.08046   1389489.18461
  22888588.2924   -6888926.61646  -5321431.51961
  21367699.8234    1865081.05446   1453307.24261
 91  5 14 23 36 44.9990000  0  4G13G 2G12G 6
  20008557.4874   -2065016.07648  -1609101.87161
  22252229.565     1801225.456 6   1403550.48921
  22877672.917    -6946283.273 6  -5366124.96521
  21372084.2454    1888127.79846   1471265.70961
 91  5 14 23 36 59.9990000  0  4G13G 2G12G 6
  20006820.565    -2074145.868 8  -1616215.98121
  22255671.745     1819323.647 6   1417652.95221
  22866767.7844   -7003597.78746  -5410785.56761
  21376494.3314    1911296.23346   1489319.00961
 91  5 14 23 37 14.9990000  0  4G13G 2G12G 6
  20005108.206    -2083142.939 8  -1623226.67721
  22259125.370     1837467.515 6   1431791.00721
  22855868.0194   -7060877.12346  -5455418.74961
  21380925.120     1934579.140 6   1507461.50721
 91  5 14 23 37 29.9990000  0  4G13G 2G12G 6
  20003420.9724   -2092010.70648  -1630136.61861
  22262586.394     1855653.702 6   1445962.03621
  22844973.7224   -7118124.26446  -5500026.85661
  21385375.9484    1957973.03946   1525690.48361
 91  5 14 23 37 44.9990000  0  4G13G 2G12G 6
  20001760.2224   -2100736.49948  -1636935.92861
  22266059.448     1873895.302 6   1460176.24821
  22834088.183    -7175325.738 6  -5544599.36421
  21389852.4484    1981490.94646   1544016.08861
 91  5 14 23 37 59.9990000  0  4G13G 2G12G 6
  20000123.5584   -2109334.41748  -1643635.59661
  22269535.058     1892178.588 6   1474422.93521
  22823209.5504   -7232495.06046  -5589146.83061
  21394347.7144    2005118.91546   1562427.46661
 91  5 14 23 38 14.9990000  0  4G13G 2G12G 6
  19998512.8784   -2117800.24748  -1650232.33961
  22273023.558     1910507.630 6   1488705.28421
  22812336.7454   -7289627.77346  -5633665.77261
  21398866.8394    2028860.92446   1580927.69361
 91  5 14 23 38 29.9990000  0  4G13G 2G12G 6
  19996929.0974   -2126122.78048  -1656717.42361
  22276523.105     1928893.877 6   1503032.20521
  22801475.2614   -7346712.31146  -5678147.16761
  21403408.6754    2052728.19646   1599525.53461
 91  5 14 23 38 44.9990000  0  4G13G 2G12G 6
  19995368.3154   -2134323.92248  -1663107.90861
  22280027.050     1947315.432 6   1517386.63421
  22790617.808    -7403770.049 6  -5722607.67821
  21407969.9094    2076698.74446   1618203.84961
 91  5 14 23 38 59.9990000  0  4G13G 2G12G 6
  19993833.7304   -2142386.28848  -1669390.26461
  22283544.5344    1965789.97346   1531782.35261
  22779768.0424   -7460783.06846  -5767033.34961
  21412553.9874    2100790.21346   1636976.38061
 91  5 14 23 39 14.9990000  0  4G13G 2G12G 6
  19992325.5974   -2150313.95648  -1675567.65861
  22287069.558     1984313.619 6   1546216.34221
  22768927.3624   -7517754.91646  -5811426.94261
  21417160.214     2124998.499 6   1655839.93221
 91  5 14 23 39 29.9990000  0  4G13G 2G12G 6
  19990843.8554   -2158100.94847  -1681635.43561
  22290603.901     2002892.676 6   1560693.49921
  22758093.620    -7574678.891 6  -5855783.22421
  21421791.6594    2149329.74446   1674799.30761
 91  5 14 23 39 44.9990000  0  4G13G 2G12G 6
  19989388.7924   -2165750.50748  -1687596.12761
  22294148.706     2021524.242 6   1575211.57821
  22747271.690    -7631557.757 6  -5900104.36721
  21426444.269     2173780.918 6   1693852.12421
 91  5 14 23 39 59.9990000  0  4G13G 2G12G 6
  19987956.0974   -2173279.03848  -1693462.50861
  22297704.472     2040191.820 6   1589757.71121
  22736452.3314   -7688407.62146  -5944402.90261
  21431116.2374    2198335.41946   1712985.46461
 91  5 14 23 40 14.9990000  0  4G13G 2G12G 6
  19986546.1594   -2180681.77347  -1699230.86861
  22301264.706     2058900.509 6   1604335.88721
  22725640.464    -7745223.162 6  -5988674.69521
  21435809.5424    2222998.11446   1732203.11061
 91  5 14 23 40 29.9990000  0  4G13G 2G12G 6
  19985159.4804   -2187969.14947  -1704909.33361
  22304831.300     2077639.954 6   1618938.02421
  22714834.065    -7802014.394 6  -6032927.54621
  21440521.167     2247758.626 6   1751496.97221
 91  5 14 23 40 44.9990000  0  4G13G 2G12G 6
  19983798.6594   -2195123.37147  -1710484.04761
  22308406.894     2096428.003 6   1633578.04121
  22704034.2144   -7858763.17146  -6077147.31761
  21445255.089     2272634.639 6   1770880.83821
 91  5 14 23 40 59.9990000  0  4G13G 2G12G 6
  19982462.3394   -2202145.36547  -1715955.71861
  22311990.5194    2115264.17446   1648255.54061
  22693243.722    -7915469.919 6  -6121334.34121
  21450009.8864    2297625.33346   1790354.06361
 91  5 14 23 41 14.9990000  0  4G13G 2G12G 6
  19981152.8234   -2209023.62148  -1721315.39361
  22315585.167     2134160.104 6   1662979.62021
  22682462.487    -7972122.470 6  -6165479.12821
  21454790.620     2322742.366 6   1809925.73021
 91  5 14 23 41 29.9990000  0  4G13G 2G12G 6
  19979871.4724   -2215760.69547  -1726565.05561
  22319193.6124    2153113.58846   1677748.53161
  22671692.2224   -8028722.94546  -6209583.33561
  21459592.9564    2347983.20446   1829593.87561
 91  5 14 23 41 44.9990000  0  4G13G 2G12G 6
  19978616.1124   -2222356.81147  -1731704.88261
  22322810.6364    2172124.60946   1692562.28661
  22660930.550    -8085270.834 6  -6253646.58021
  21464421.175     2373347.762 6   1849358.41921
 91  5 14 23 41 59.9990000  0  4G13G 2G12G 6
  19977385.9094   -2228825.08648  -1736745.08761
  22326434.3474    2191180.21346   1707410.78061
  22650178.2614   -8141778.66446  -6297678.59561
  21469268.0264    2398823.06446   1869209.26061
 91  5 14 23 42 14.9990000  0  4G13G 2G12G 6
  19976179.4174   -2235165.65847  -1741685.78861
  22330070.706     2210280.350 6   1722293.97921
  22639432.730    -8198246.206 6  -6341679.23321
  21474137.573     2424408.833 6   1889146.17821
 91  5 14 23 42 29.9990000  0  4G13G 2G12G 6
  19974997.8784   -2241370.76348  -1746520.92861
  22333715.0894    2229433.05346   1737218.13561
  22628696.589    -8254665.222 6  -6385642.05021
  21479029.651     2450112.869 6   1909175.25321
 91  5 14 23 42 44.9990000  0  4G13G 2G12G 6
  19973841.2614   -2247451.85448  -1751259.43261
  22337368.3704    2248627.11946   1752174.51861
  22617968.253    -8311046.541 6  -6429575.49821
  21483940.050     2475924.017 6   1929287.79221
 91  5 14 23 42 59.9990000  0  4G13G 2G12G 6
  19972707.4564   -2253405.93947  -1755898.97761
  22341029.5894    2267865.88546   1767165.73161
  22607247.651    -8367386.473 6  -6473476.69321
  21488872.651     2501845.191 6   1949486.06121
 91  5 14 23 43 14.9990000  0  4G13G 2G12G 6
  19971598.9564   -2259231.15048  -1760438.09061
  22344699.7534    2287151.32946   1782193.32161
  22596534.034    -8423682.893 6  -6517343.99221
  21493827.315     2527878.304 6   1969771.55621
 91  5 14 23 43 29.9990000  0  4G13G 2G12G 6
  19970513.3314   -2264935.73448  -1764883.22161
  22348375.3624    2306475.40846   1797251.01161
  22585827.667    -8479943.493 6  -6561183.36421
  21498800.2694    2554015.21546   1990137.93861
 91  5 14 23 43 44.9990000  0  4G13G 2G12G 6
  19969454.2694   -2270502.31247  -1769220.80861
  22352061.6904    2325855.51946   1812352.36761
  22575131.386    -8536150.353 6  -6604980.87621
  21503797.956     2580273.251 6   2010598.69621
 91  5 14 23 43 59.9990000  0  4G13G 2G12G 6
  19968418.5264   -2275945.45748  -1773462.21361
  22355759.5734    2345277.47646   1827486.32561
  22564443.1514   -8592317.53046  -6648747.47061
  21508814.714     2606637.970 6   2031142.58221
 91  5 14 23 44 14.9990000  0  4G13G 2G12G 6
  19967407.1594   -2281259.70148  -1777603.17361
  22359465.5264    2364747.04246   1842657.38261
  22553763.495    -8648439.018 6  -6692478.44721
  21513852.370     2633114.918 6   2051773.91821
 91  5 14 23 44 29.9990000  0  4G13G 2G12G 6
  19966419.9804   -2286446.93848  -1781645.17261
  22363178.7374    2384262.54946   1857864.23361
  22543091.7534   -8704516.14046  -6736174.86861
  21518910.690     2659702.091 6   2072491.14721
 91  5 14 23 44 44.9990000  0  4G13G 2G12G 6
  19965460.3554   -2291490.40647  -1785575.14161
  22366904.5344    2403840.87546   1873120.04261
  22532433.417    -8760531.590 6  -6779823.22021
  21523996.651     2686416.457 6   2093307.48121
 91  5 14 23 44 59.9990000  0  4G13G 2G12G 6
  19964522.8554   -2296418.45948  -1789415.17861
  22370634.8154    2423453.73846   1888402.76861
  22521780.3154   -8816513.35346  -6823445.33361
  21529098.323     2713229.583 6   2114200.77821
 91  5 14 23 45 14.9990000  0  4G13G 2G12G 6
  19963610.3784   -2301213.21247  -1793151.34561
  22374379.698     2443119.275 6   1903726.51921
  22511136.9954   -8872442.96246  -6867026.81861
  21534223.605     2740159.360 6   2135184.97221
 91  5 14 23 45 29.9990000  0  4G13G 2G12G 6
  19962720.0194   -2305888.33147  -1796794.29161
  22378128.0974    2462824.33446   1919081.08161
  22500501.2614   -8928333.35946  -6910577.72561
  21539367.245     2767192.503 6   2156249.71221
 91  5 14 23 45 44.9990000  0  4G13G 2G12G 6
  19961858.0584   -2310421.62348  -1800326.72461
  22381889.5264    2482591.06846   1934483.70561
  22489876.839    -8984162.046 6  -6954080.56121
  21544534.667     2794351.054 6   2177412.17321
 91  5 14 23 45 59.9990000  0  4G13G 2G12G 6
  19961019.0894   -2314826.33547  -1803758.96161
  22385660.1364    2502406.47146   1949924.24061
  22479263.558    -9039941.799 6  -6997545.26321
  21549725.933     2821621.747 6   2198662.01521
 91  5 14 23 46 14.9990000  0  4G13G 2G12G 6
  19960205.8234   -2319105.27747  -1807093.19761
  22389441.6444    2522267.91646   1965400.66361
  22468657.315    -9095674.746 6  -7040973.49921
  21554934.683     2849001.907 6   2219997.15421
 91  5 14 23 46 29.9990000  0  4G13G 2G12G 6
  19959414.4094   -2323261.91247  -1810332.13161
  22393228.3864    2542172.35646   1980910.58061
  22458059.886    -9151363.749 6  -7084367.48621
  21560166.534     2876488.126 6   2241414.93521
 91  5 14 23 46 44.9990000  0  4G13G 2G12G 6
  19958646.3944   -2327298.35647  -1813477.40661
  22397024.0504    2562117.83746   1996452.48361
  22447470.651    -9207010.289 6  -7127728.38321
  21565415.347     2904078.346 6   2262913.76621
 91  5 14 23 46 59.9990000  0  4G13G 2G12G 6
  19957905.1364   -2331194.17347  -1816513.10961
  22400831.5894    2582124.79046   2012042.27761
  22436894.761    -9262593.675 6  -7171040.06921
  21570690.245     2931792.977 6   2284509.52821
 91  5 14 23 47 14.9990000  0  4G13G 2G12G 6
  19957187.6984   -2334965.90847  -1819452.11961
  22404647.0734    2602177.20046   2027667.49661
  22426326.3084   -9318129.69146  -7214314.85661
  21575983.761     2959615.617 6   2306189.46621
 91  5 14 23 47 29.9990000  0  4G13G 2G12G 6
  19956493.6674   -2338613.47148  -1822294.37261
  22408470.4874    2622275.09646   2043328.15861
  22415766.644    -9373617.862 6  -7257552.34421
  21581300.386     2987546.227 6   2327953.52721
 91  5 14 23 47 44.9990000  0  4G13G 2G12G 6
  19955820.8004   -2342149.27347  -1825049.53961
  22412301.5264    2642406.49146   2059014.92861
  22405214.972    -9429069.995 6  -7300761.75821
  21586632.245     3015572.623 6   2349792.23021
 91  5 14 23 47 59.9990000  0  4G13G 2G12G 6
  19955172.1834   -2345554.09247  -1827702.64361
  22416143.1444    2662590.90346   2074743.00161
  22394672.0424   -9484466.09246  -7343927.50761
  21591988.097     3043714.196 6   2371720.67321
 91  5 14 23 48 14.9990000  0  4G13G 2G12G 6
  19954548.9484   -2348827.72547  -1830253.52361
  22419993.9254    2682828.64346   2090512.64161
  22384142.1124   -9539805.61346  -7387049.16961
  21597364.667     3071970.920 6   2393738.84721
 91  5 14 23 48 29.9990000  0  4G13G 2G12G 6
  19953949.9254   -2351977.00047  -1832707.50561
  22423853.1124    2703113.27546   2106318.81761
  22373618.925    -9595094.948 6  -7430131.72421
  21602763.550     3100336.163 6   2415841.58121
 91  5 14 23 48 44.9990000  0  4G13G 2G12G 6
  19953378.5584   -2354985.19148  -1835051.54161
  22427724.925     2723461.589 6   2122174.61421
  22363112.237    -9650316.645 6  -7473161.56921
  21608184.464     3128826.594 6   2438041.86821
 91  5 14 23 48 59.9990000  0  4G13G 2G12G 6
  19952828.0734   -2357874.79348  -1837303.17861
  22431608.3944    2743851.26946   2138062.63861
  22352611.8234   -9705492.80946  -7516155.94261
  21613626.698     3157419.813 6   2460322.25221
 91  5 14 23 49 14.9990000  0  4G13G 2G12G 6
  19952303.8234   -2360630.14348  -1839450.19961
  22435498.6124    2764298.40446   2153995.44261
  22342124.425    -9760607.009 6  -7559102.02221
  21619088.440     3186131.727 6   2482695.11721
 91  5 14 23 49 29.9990000  0  4G13G 2G12G 6
  19951802.1054   -2363262.08548  -1841501.06061
  22439396.8474    2784792.14746   2169964.56361
  22331645.269    -9815669.869 6  -7602008.09821
  21624573.550     3214951.174 6   2505151.78121
 91  5 14 23 49 44.9990000  0  4G13G 2G12G 6
  19951326.2374   -2365765.64948  -1843451.88361
  22443308.6054    2805337.86946   2185974.19561
  22321178.190    -9870675.470 6  -7644869.56121
  21630079.440     3243883.616 6   2527696.49521
 91  5 14 23 49 59.9990000  0  4G13G 2G12G 6
  19950875.1514   -2368139.99948  -1845302.02261
  22447226.3474    2825936.53846   2202025.06461
  22310722.112    -9925622.472 6  -7687685.35521
  21635607.058     3272929.813 6   2550329.85121
 91  5 14 23 50 14.9990000  0  4G13G 2G12G 6
  19950445.6674   -2370396.89648  -1847060.64461
  22451154.519     2846576.651 6   2218108.23921
  22300276.690    -9980522.250 6  -7730464.35821
  21641154.7844    3302077.86646   2573042.55561
 91  5 14 23 50 29.9990000  0  4G13G 2G12G 6
  19950038.6594   -2372533.07748  -1848725.19561
  22455089.355     2867261.710 6   2234226.44021
  22289838.753   -10035370.934 6  -7773203.54221
  21646719.581     3331331.027 6   2595837.18421
 91  5 14 23 50 44.9990000  0  4G13G 2G12G 6
  19949654.4254   -2374549.58948  -1850296.49961
  22459034.4564    2887991.05146   2250379.14461
  22279410.667   -10090168.856 6  -7815903.17121
  21652306.886     3360688.687 6   2618713.23221
 91  5 14 23 50 59.9990000  0  4G13G 2G12G 6
  19949292.2374   -2376456.25248  -1851782.20561
  22462988.0894    2908755.02946   2266558.83461
  22268991.1834  -10144925.30446  -7858570.48261
  21657911.151     3390140.859 6   2641662.93021
 91  5 14 23 51 14.9990000  0  4G13G 2G12G 6
  19948953.1984   -2378239.15648  -1853171.47961
  22466947.0114    2929567.71346   2282776.47761
  22258581.269   -10199626.145 6  -7901194.46121
  21663536.831     3419701.352 6   2664697.03021
 91  5 14 23 51 29.9990000  0  4G13G 2G12G 6
  19948638.0034   -2379894.35748  -1854461.24661
  22470918.1754    2950433.48546   2299035.49161
  22248183.167   -10254266.477 6  -7943771.29821
  21669182.9254    3449374.49846   2687818.90461
 91  5 14 23 51 44.9990000  0  4G13G 2G12G 6
  19948346.4254   -2381425.66948  -1855654.46861
  22474898.644     2971348.739 6   2315333.07221
  22237796.1904  -10308849.52546  -7986303.49261
  21674851.097     3479156.445 6   2711025.56621
 91  5 14 23 51 59.9990000  0  4G13G 2G12G 6
  19948080.1904   -2382823.42548  -1856743.62661
  22478890.3234    2992323.33546   2331676.87761
  22227422.159   -10363365.161 6  -8028783.15821
  21680539.534     3509056.768 6   2734324.45921
 91  5 14 23 52 14.9990000  0  4G13G 2G12G 6
  19947837.5114   -2384096.04448  -1857735.27661
  22482891.2534    3013348.84946   2348060.36661
  22217059.808   -10417821.316 6  -8071216.47621
  21686251.456     3539067.258 6   2757709.20921
 91  5 14 23 52 29.9990000  0  4G13G 2G12G 6
  19947619.4094   -2385245.10248  -1858630.64261
  22486901.0894    3034424.01746   2364482.54461
  22206708.901   -10472219.005 6  -8113604.23721
  21691982.980     3569186.160 6   2781178.43021
 91  5 14 23 52 44.9990000  0  4G13G 2G12G 6
  19947422.7924   -2386276.07048  -1859433.98861
  22490918.9254    3055543.73746   2380939.43361
  22196367.269   -10526563.051 6  -8155950.19821
  21697733.269     3599408.111 6   2804727.95321
 91  5 14 23 52 59.9990000  0  4G13G 2G12G 6
  19947248.8394   -2387189.46748  -1860145.72261
  22494947.7374    3076707.69446   2397430.78961
  22186036.003   -10580853.396 6  -8198254.31721
  21703504.9334    3629732.68646   2828357.43261
 91  5 14 23 53 14.9990000  0  4G13G 2G12G 6
  19947099.7614   -2387970.12148  -1860754.02061
  22498984.511     3097931.080 6   2413968.47121
  22175718.448   -10635074.615 6  -8240504.56321
  21709297.792     3660174.979 6   2852078.65421
 91  5 14 23 53 29.9990000  0  4G13G 2G12G 6
  19946976.3394   -2388631.75248  -1861269.57261
  22503033.0194    3119200.59646   2430542.08161
  22165411.261   -10689239.602 6  -8282711.00621
  21715110.4804    3690721.35746   2875880.96561
 91  5 14 23 53 44.9990000  0  4G13G 2G12G 6
  19946871.4644   -2389171.49948  -1861690.15661
  22507090.2144    3140519.43846   2447154.12861
  22155115.151   -10743344.919 6  -8324870.94421
  21720943.9804    3721374.79546   2899766.71161
 91  5 14 23 53 59.9990000  0  4G13G 2G12G 6
  19946794.9094   -2389576.36748  -1862005.63261
  22511159.7064    3161900.81946   2463814.92061
  22144832.183   -10797376.878 6  -8366973.72221
  21726798.9874    3752148.41146   2923746.10161
 91  5 14 23 54 14.9990000  0  4G13G 2G12G 6
  19946740.4874   -2389863.53648  -1862229.39661
  22515236.3314    3183327.68646   2480511.15461
  22134562.003   -10851352.029 6  -8409032.23621
  21732675.4724    3783025.02246   2947805.74161
 91  5 14 23 54 29.9990000  0  4G13G 2G12G 6
  19946707.7694   -2390038.65748
  22519322.917     3204794.772 6   2497238.71121
  22124301.300   -10905275.509 6  -8451050.47821
  21738569.769     3813999.037 6   2971941.28021
 91  5 14 23 54 44.9990000  0  4G13G 2G12G 6
  19946694.1204   -2390101.92348
  22523414.8784    3226302.03746   2513997.59361
  22114048.706   -10959147.034 6  -8493028.24921
  21744480.8554    3845070.31446   2996152.61061
 91  5 14 23 54 59.9990000  0  4G13G 2G12G 6
  19946708.3004   -2390044.83148
  22527516.5264    3247858.32046   2530794.66061
  22103809.0894  -11012957.34746  -8534958.32961
  21750415.714     3876247.441 6   3020446.42121
 91  5 14 23 55 14.9990000  0  4G13G 2G12G 6
  19946740.5264   -2389868.29948
  22531627.3314    3269463.13246   2547629.53861
  22093579.847   -11066706.604 6  -8576840.81921
  21756367.8944    3907529.74846   3044822.18761
 91  5 14 23 55 29.9990000  0  4G13G 2G12G 6
  19946794.8004   -2389576.09848
  22535746.167     3291112.862 6   2564499.41121
  22083363.183   -11120398.229 6  -8618678.40621
  21762339.7454    3938913.39346   3069276.91761
 91  5 14 23 55 44.9990000  0  4G13G 2G12G 6
  19946873.6904   -2389156.82648  -1861678.70062
  22539877.8394    3312819.24946   2581413.44861
  22073159.644   -11174020.277 6  -8660461.77621
  21768334.3154    3970409.74446   3093819.46961
 91  5 14 23 55 59.9990000  0  4G13G 2G12G 6
  19946976.5344   -2388627.76448  -1861266.43962
  22544018.425     3334565.158 6   2598358.27221
  22062965.9174  -11227589.33446  -8702203.86161
  21774343.706     4002001.613 6   3118436.45721
 91  5 14 23 56 14.9990000  0  4G13G 2G12G 6
  19947098.4484   -2387977.66848  -1860759.87061
  22548165.0974    3356361.77346   2615342.61361
  22052784.9724  -11281093.92546  -8743895.71461
  21780376.8944    4033699.96246   3143136.40361
 91  5 14 23 56 29.9990000  0  4G13G 2G12G 6
  19947244.8084   -2387210.63948  -1860162.18561
  22552320.6754    3378205.44546   2632363.61761
  22042615.6514  -11334537.31947  -8785539.87461
  21786428.6904    4065501.01446   3167916.38861
 91  5 14 23 56 44.9990000  0  4G13G 2G12G 6
  19947414.5654   -2386325.43348  -1859472.41061
  22556485.9484    3400097.44146   2649422.28661
  22032456.323   -11387917.835 7  -8827135.04021
  21792500.2614    4097405.82646   3192777.21961
 91  5 14 23 56 59.9990000  0  4G13G 2G12G 6
  19947604.878    -2385319.279 8  -1858688.39022
  22560663.808     3422040.946 6   2666521.09121
  22022311.5344  -11441231.97147  -8868678.48161
  21798592.4094    4129417.52946   3217721.33861
 91  5 14 23 57 14.9980000  0  4G13G 2G12G 6
  19947819.7174   -2384194.27047  -1857811.75662
  22564846.2564    3444032.77546   2683657.54161
  22012178.6004  -11494477.75547  -8910168.66561
  21804704.0844    4161531.77546   3242745.36761
 91  5 14 23 57 29.9980000  0  4G13G 2G12G 6
  19948055.7644   -2382953.54947  -1856844.96061
  22569042.9364    3466072.93246   2700831.64961
  22002057.4674  -11547664.87047  -8951613.13161
  21810832.5144    4193749.61346   3267850.11761
 91  5 14 23 57 44.9980000  0  4G13G 2G12G 6
  19948313.3424   -2381599.95847  -1855790.21462
  22573244.6784    3488157.47046   2718040.34861
  21991947.1074  -11600791.68347  -8993010.61661
  21816983.7254    4226066.48146   3293032.01961
 91  5 14 23 57 59.9980000  0  4G13G 2G12G 6
  19948594.3184   -2380121.89647  -1854638.47361
  22577459.1394    3510298.15146   2735292.79161
  21981850.9984  -11653846.22447  -9034351.77561
  21823153.561     4258493.776 6   3318299.97521
 91  5 14 23 58 14.9980000  0  4G13G 2G12G 6
  19948897.1704   -2378532.32647  -1853399.84861
  22581677.6784    3532482.42646   2752579.19961
  21971767.4124  -11706840.84847  -9075646.25261
  21829343.1864    4291018.75846   3343644.05861
 91  5 14 23 58 29.9980000  0  4G13G 2G12G 6
  19949221.3894   -2376829.28447  -1852072.80161
  22585907.9984    3554712.37346   2769901.19661
  21961694.2644  -11759772.96647  -9116892.02161
  21835552.1544    4323643.44346   3369065.82661
 91  5 14 23 58 44.9980000  0  4G13G 2G12G 6
  19949567.4594   -2375006.38447  -1850652.35761
  22590149.3184    3576994.46846   2787263.83461
  21951634.8504  -11812635.64047  -9158083.67961
  21841781.0224    4356374.06646   3394570.15061
 91  5 14 23 58 59.9980000  0  4G13G 2G12G 6
  19949935.9284   -2373070.51747  -1849143.88661
  22594395.9984    3599322.42146   2804662.20461
  21941588.5684  -11865435.08347  -9199226.07161
  21848028.2484    4389203.91546   3420151.78261
 91  5 14 23 59 14.9980000  0  4G13G 2G12G 6
  19950325.6004   -2371024.92747  -1847549.92461
  22598652.3424    3621693.05046   2822093.82261
  21931552.8974  -11918174.09247  -9240321.36561
  21854292.7484    4422129.57646   3445808.07061
 91  5 14 23 59 29.9980000  0  4G13G 2G12G 6
  19950734.8034   -2368872.47647  -1845872.68661
  22602919.420     3644103.753 6   2839556.67121
  21921527.6004  -11970854.86947  -9281371.28261
  21860576.3344    4455148.51146   3471537.05161
 91  5 14 23 59 44.9980000  0  4G13G 2G12G 6
  19951166.7254   -2366607.30547  -1844107.61861
  22607193.764     3666560.635 6   2857055.50221
  21911514.1474  -12023470.88147  -9322370.73161
  21866879.1544    4488266.58846   3497343.28161
 91  5 14 23 59 59.9980000  0  4G13G 2G12G 6
  19951619.9364   -2364225.59747  -1842251.73862
  22611478.1864    3689067.60546   2874593.36861
  21901513.7094  -12076017.80547  -9363316.35261
  21873200.7794    4521487.54746   3523229.67661
 91  5 15  0  0 14.9980000  0  4G13G 2G12G 6
  19952096.3504   -2361714.00547  -1840294.65362
  22615770.443     3711638.502 6   2892181.03621
  21891531.5844  -12128481.51147  -9404197.12261
  21879544.8574    4554824.85346   3549206.73361
 91  5 15  0  0 29.9980000  0  4G13G 2G12G 6
  19952596.1234   -2359091.90847  -1838251.46161
  22620078.7874    3734254.21946   2909803.63561
  21881558.9984  -12180881.00947  -9445027.85761
  21885907.170     4588259.046 6   3575259.27921
 91  5 15  0  0 44.9980000  0  4G13G 2G12G 6
  19953116.8184   -2356356.60747  -1836120.05561
  22624389.2404    3756917.64046   2927463.40061
  21871601.3974  -12233212.92047  -9485805.93761
  21892288.6154    4621792.96346   3601389.53561
 91  5 15  0  0 59.9980000  0  4G13G 2G12G 6
  19953659.1624   -2353505.84947  -1833898.68961
  22628708.5294    3779631.12146   2945162.19061
  21861656.9204  -12285474.52747  -9526529.23161
  21898689.4044    4655428.89846   3627599.29161
 91  5 15  0  1 14.9980000  0  4G13G 2G12G 6
  19954222.0684   -2350547.21347  -1831593.25961
  22633040.4124    3802387.34146   2962894.26661
  21851723.1784  -12337672.64447  -9567203.04461
  21905109.4204    4689159.22446   3653882.59961
 91  5 15  0  1 29.9980000  0  4G13G 2G12G 6
  19954805.9904   -2347477.35847  -1829201.16061
  22637380.826     3825189.979 6   2980662.51921
  21841804.5224  -12389803.27047  -9607824.27761
  21911545.850     4722987.465 6   3680242.19121
 91  5 15  0  1 44.9980000  0  4G13G 2G12G 6
  19955412.0374   -2344293.41447  -1826720.17061
  22641729.5144    3848042.39346   2998469.54761
  21831897.6784  -12441862.91747  -9648390.19961
  21918001.0764    4756916.46946   3706680.31661
 91  5 15  0  1 59.9980000  0  4G13G 2G12G 6
  19956040.3574   -2340994.32747  -1824149.45461
  22646087.123     3870946.083 6   3016316.53521
  21822003.9044  -12493849.76447  -9688899.38961
  21924478.9594    4790947.55746   3733197.98061
 91  5 15  0  2 14.9980000  0  4G13G 2G12G 6
  19956690.0454   -2337580.19047  -1821489.08661
  22650457.5064    3893900.94346   3034203.38061
  21812125.1004  -12545763.48947  -9729351.60261
  21930972.2484    4825080.28546   3759794.85261
 91  5 15  0  2 29.9980000  0  4G13G 2G12G 6
  19957360.9904   -2334055.18647  -1818742.32661
  22654833.2174    3916902.86746   3052126.92561
  21802260.3184  -12597607.83047  -9769749.74761
  21937487.4364    4859310.84646   3786467.95061
 91  5 15  0  2 44.9980000  0  4G13G 2G12G 6
  19958052.1314   -2330422.22447  -1815911.44861
  22659217.342     3939949.407 6   3070085.21821
  21792407.0534  -12649384.96447  -9810095.53761
  21944018.5844    4893636.02346   3813214.77261
 91  5 15  0  2 59.9980000  0  4G13G 2G12G 6
  19958765.7404   -2326670.30947  -1812987.88261
  22663617.076     3963051.610 6   3088086.89021
  21782568.9124  -12701083.33347  -9850379.93861
  21950570.1314    4928066.96546   3840044.01261
 91  5 15  0  3 14.9980000  0  4G13G 2G12G 6
  19959499.9364   -2322810.80147  -1809980.47161
  22668018.615     3986198.535 6   3106123.41021
  21772743.7484  -12752713.43547  -9890611.14661
  21957140.936     4962592.620 6   3866947.04521
 91  5 15  0  3 29.9980000  0  4G13G 2G12G 6
  19960255.7874   -2318840.15447  -1806886.45661
  22672433.154     4009393.843 6   3124197.63521
  21762932.537   -12804271.391 7  -9930786.13321
  21963730.5614    4997216.29246   3893926.46861
 91  5 15  0  3 44.9980000  0  4G13G 2G12G 6
  19961035.1474   -2314749.59147  -1803699.00361
  22676859.5844    4032646.73146   3142316.72961
  21753136.9674  -12855747.77447  -9970897.56361
  21970339.1154    5031946.87246   3920989.18161
 91  5 15  0  3 59.9980000  0  4G13G 2G12G 6
  19961834.0684   -2310548.51947  -1800425.44361
  22681292.6474    4055947.97546   3160473.48961
  21743355.2174  -12907151.36947 -10010952.27461
  21976967.389     5066774.899 6   3948127.82921
 91  5 15  0  4 14.9980000  0  4G13G 2G12G 6
  19962652.8264   -2306245.54147  -1797072.46961
  22685733.6314    4079289.21046   3178661.42761
  21733586.607   -12958490.177 7 -10050956.49621
  21983612.4044    5101691.77346   3975335.71461
 91  5 15  0  4 29.9980000  0  4G13G 2G12G 6
  19963491.9044   -2301833.70747  -1793634.67561
  22690184.9204    4102677.76746   3196886.21861
  21723829.9674  -13009756.61447 -10090904.33261
  21990274.553     5136704.725 6   4002618.46121
 91  5 15  0  4 44.9980000  0  4G13G 2G12G 6
  19964352.3814   -2297313.59647  -1790112.50961
  22694645.100     4126113.291 6   3215147.61621
  21714088.0294  -13060950.62047 -10130795.72161
  21996954.6394    5171813.02346   4029975.51061
 91  5 15  0  4 59.9980000  0  4G13G 2G12G 6
  19965235.5454   -2292676.11047  -1786498.88161
  22699114.748     4149604.967 6   3233452.77821
  21704361.8344  -13112062.50947 -10170623.12861
  22003655.475     5207025.835 6   4057413.98221
 91  5 15  0  5 14.9980000  0  4G13G 2G12G 6
  19966137.5294   -2287936.02447  -1782805.30961
  22703593.795     4173138.593 6   3251790.61221
  21694649.1314  -13163106.37247 -10210397.53561
  22010372.4044    5242328.51546   4084922.49861
 91  5 15  0  5 29.9980000  0  4G13G 2G12G 6
  19967058.4284   -2283096.66747  -1779034.38161
  22708079.2954    4196710.88646   3270158.58361
  21684948.1314  -13214085.08047 -10250121.15961
  22017108.787     5277717.586 6   4112498.31621
 91  5 15  0  5 44.9980000  0  4G13G 2G12G 6
  19968000.3734   -2278147.54447  -1775177.92161
  22712573.967     4220332.911 6   3288565.30721
  21675260.631   -13264987.237 7 -10289785.14321
  22023861.686     5313203.829 6   4140149.86221
 91  5 15  0  5 59.9980000  0  4G13G 2G12G 6
  19968960.6314   -2273098.56447  -1771243.64761
  22717078.3184    4243994.70146   3307002.99761
  21665587.2644  -13315822.38347 -10329396.90361
  22030631.990     5348777.287 6   4167869.36021
 91  5 15  0  6 14.9980000  0  4G13G 2G12G 6
  19969938.6784   -2267956.42147  -1767236.78662
  22721587.404     4267689.893 6   3325466.74621
  21655926.178   -13366596.390 7 -10368961.02722
  22037415.7094    5384431.25446   4195651.59961
 91  5 15  0  6 29.9980000  0  4G13G 2G12G 6
  19970938.7794   -2262703.63547  -1763143.70561
  22726104.357     4291436.097 6   3343970.22721
  21646277.2794  -13417291.33947 -10408463.55161
  22044218.9204    5420183.15446   4223510.15861
 91  5 15  0  6 44.9980000  0  4G13G 2G12G 6
  19971959.3344   -2257340.81147  -1758964.88561
  22730632.139     4315233.200 6   3362513.37321
  21636646.2254  -13467907.09647 -10447904.36662
  22051041.936     5456032.638 6   4251444.73621
 91  5 15  0  6 59.9980000  0  4G13G 2G12G 6
  19973001.4284   -2251865.10947  -1754698.10462
  22735171.0294    4339084.21346   3381098.52261
  21627031.3184  -13518440.28147 -10487280.83762
  22057880.1154    5491982.42546   4279457.49661
 91  5 15  0  7 14.9980000  0  4G13G 2G12G 6
  19974065.4124   -2246276.29947  -1750343.18862
  22739721.6004    4362989.62846   3399726.07261
  21617430.1314  -13568890.05647 -10526592.31662
  22064742.318     5528032.874 6   4307548.67421
 91  5 15  0  7 29.9980000  0  4G13G 2G12G 6
  19975146.2404   -2240593.23447  -1745914.82662
  22744275.428     4386930.894 6   3418381.54621
  21607842.1074  -13619274.60047 -10565852.96662
  22071617.436     5564165.100 6   4335703.57821
 91  5 15  0  7 44.9980000  0  4G13G 2G12G 6
  19976248.0764   -2234800.61347  -1741401.10362
  22748843.4044    4410923.90646   3437077.34261
  21598269.3264  -13669577.80747 -10605050.23762
  22078511.639     5600394.789 6   4363934.42921
 91  5 15  0  7 59.9980000  0  4G13G 2G12G 6
  19977371.8344   -2228895.10147  -1736799.40262
  22753418.5844    4434972.15245   3455816.17261
  21588713.7724  -13719795.82647 -10644181.12861
  22085425.295     5636725.091 6   4392243.67921
 91  5 15  0  8 14.9980000  0  4G13G 2G12G 6
  19978516.5144   -2222885.40147  -1732116.51861
  22758004.912     4459067.105 6   3474591.39921
  21579172.6074  -13769936.89547 -10683252.05661
  22092355.9204    5673147.24146   4420624.49061
 91  5 15  0  8 29.9980000  0  4G13G 2G12G 6
  19979681.3654   -2216766.97547  -1727348.91761
  22762600.6624    4483213.36946   3493406.59661
  21569646.3114  -13819995.78747 -10722258.95661
  22099306.303     5709665.619 6   4449080.29321
 91  5 15  0  8 44.9980000  0  4G13G 2G12G 6
  19980863.2254   -2210550.94447  -1722505.25761
  22767200.803     4507400.292 6   3512253.48121
  21560133.9124  -13869982.99847 -10761209.99461
  22106271.326     5746269.317 6   4477602.57521
 91  5 15  0  8 59.9980000  0  4G13G 2G12G 6
  19982067.3034   -2204219.80047  -1717571.90061
  22771816.6474    4531645.56846   3531145.83061
  21550638.9824  -13919880.41547 -10800091.06561
  22113256.006     5782975.912 6   4506205.03721
 91  5 15  0  9 14.9980000  0  4G13G 2G12G 6
  19983292.2254   -2197786.47647  -1712558.92461
  22776437.6624    4555936.47546   3550073.75461
  21541158.209   -13969700.288 7 -10838911.72221
  22120258.131     5819772.441 6   4534877.57221
 91  5 15  0  9 29.9980000  0  4G13G 2G12G 6
  19984533.2794   -2191260.16847  -1707473.49061
  22781067.842     4580264.146 6   3569030.34921
  21531691.0294  -14019451.11247 -10877678.56461
  22127275.5064    5856649.89046   4563613.16961
 91  5 15  0  9 44.9980000  0  4G13G 2G12G 6
  19985798.5224   -2184619.48547  -1702298.92961
  22785704.639     4604650.204 5   3588032.39721
  21522240.9284  -14069110.92747 -10916374.49161
  22134313.3344    5893629.54846   4592428.40861
 91  5 15  0  9 59.9980000  0  4G13G 2G12G 6
  19987084.0294   -2177861.96448  -1697033.33261
  22790360.615     4629097.298 6   3607082.03021
  21512809.272   -14118676.775 7 -10954997.20321
  22141369.701     5930713.983 6   4621325.29121
 91  5 15  0 10 14.9980000  0  4G13G 2G12G 6
  19988391.2724   -2170999.14747  -1691685.68361
  22795021.3344    4653594.32646   3626170.55961
  21503392.6074  -14168159.50447 -10993555.14661
  22148444.9434    5967891.43146   4650294.64161
 91  5 15  0 10 29.9980000  0  4G13G 2G12G 6
  19989716.8114   -2164024.85947  -1686251.17261
  22799693.990     4678147.620 6   3645302.93821
  21493993.1154  -14217552.30847 -11032043.01661
  22155537.436     6005168.539 6   4679341.66721
 91  5 15  0 10 44.9980000  0  4G13G 2G12G 6
  19991066.8894   -2156933.96147  -1680725.80261
  22804380.826     4702762.790 6   3664483.52221
  21484613.5224  -14266849.34947 -11070456.26461
  22162651.303     6042550.277 6   4708470.21821
 91  5 15  0 10 59.9980000  0  4G13G 2G12G 6
  19992437.1544   -2149732.72247  -1675114.44961
  22809071.6314    4727433.87746   3683707.67861
  21475247.8974  -14316056.27947 -11108799.30361
  22169783.592     6080030.322 6   4737675.35921
 91  5 15  0 11 14.9980000  0  4G13G 2G12G 6
  19993824.6474   -2142440.63647  -1669432.30461
  22813774.8034    4752141.63046   3702960.42261
  21465898.584   -14365191.860 7 -11147086.73921
  22176930.803     6117589.408 6   4766942.10621
 91  5 15  0 11 29.9980000  0  4G13G 2G12G 6
  19995231.3504   -2135044.23847  -1663668.87761
  22818487.100     4776899.697 6   3722252.36021
  21456564.4984  -14414242.02847 -11185307.61761
  22184095.670     6155240.968 6   4796280.91021
 91  5 15  0 11 44.9980000  0  4G13G 2G12G 6
  19996659.1624   -2127546.47747  -1657826.46761
  22823208.522     4801705.236 6   3741581.29121
  21447246.2564  -14463209.23347 -11223463.85261
  22191277.631     6192982.014 6   4825689.43121
 91  5 15  0 11 59.9980000  0  4G13G 2G12G 6
  19998107.0224   -2119933.79147  -1651894.50661
  22827938.1624    4826572.22946   3760958.10361
  21437946.9364  -14512079.22147 -11261544.33461
  22198480.1154    6230826.12546   4855178.26561
 91  5 15  0 12 14.9980000  0  4G13G 2G12G 6
  19999575.3034   -2112215.95747  -1645880.61362
  22832680.615     4851491.104 6   3780375.35021
  21428664.4514  -14560861.11647 -11299556.16461
  22205699.123     6268763.438 6   4884739.73021
 91  5 15  0 12 29.9980000  0  4G13G 2G12G 6
  20001061.7874   -2104406.72147  -1639795.49261
  22837430.4754    4876448.35546   3799822.47961
  21419393.9044  -14609568.16847 -11337509.68361
  22212933.3574    6306780.25746   4914363.14161
 91  5 15  0 12 44.9980000  0  4G13G 2G12G 6
  20002564.7174   -2096506.69047  -1633639.62962
  22842187.0614    4901443.82946   3819299.40461
  21410141.264   -14658200.176 7 -11375404.72621
  22220181.022     6344876.149 6   4944048.17221
 91  5 15  0 12 59.9980000  0  4G13G 2G12G 6
  20004087.4364   -2088504.08747  -1627403.83261
  22846952.9984    4926489.48146   3838815.45061
  21400902.8344  -14706744.73347 -11413231.62361
  22227450.6004    6383063.07146   4973804.13261
 91  5 15  0 13 14.9980000  0  4G13G 2G12G 6
  20005631.9124   -2080390.98147  -1621081.93361
  22851729.686     4951593.564 6   3858377.00521
  21391682.545   -14755193.298 7 -11450983.72521
  22234735.0844    6421348.80046   5003637.08761
 91  5 15  0 13 29.9980000  0  4G13G 2G12G 6
  20007194.9754   -2072172.72347  -1614678.09662
  22856517.5374    4976750.99245   3877980.13661
  21382481.3504  -14803550.54847 -11488664.66161
  22242039.6784    6459728.01446   5033542.89361
 91  5 15  0 13 44.9980000  0  4G13G 2G12G 6
  20008779.5764   -2063850.04247  -1608192.89162
  22861314.9204    5001961.11745   3897624.32061
  21373297.8974  -14851816.79147 -11526274.68661
  22249358.951     6498200.001 6   5063520.98421
 91  5 15  0 13 59.9980000  0  4G13G 2G12G 6
  20010381.9514   -2055428.51447  -1601630.66662
  22866120.990     5027218.782 5   3917305.57021
  21364127.7794  -14899996.87347 -11563817.58161
  22256697.8504    6536759.11546   5093566.95561
 91  5 15  0 14 14.9980000  0  4G13G 2G12G 6
  20012007.2014   -2046891.96747  -1594978.81262
  22870937.8264    5052540.45345   3937036.67961
  21354979.5144  -14948073.88147 -11601280.15361
  22264053.217     6575421.712 6   5123693.57021
 91  5 15  0 14 29.9980000  0  4G13G 2G12G 6
  20013649.1394   -2038257.35447  -1588250.54262
  22875767.2954    5077909.36345   3956804.59561
  21345846.9044  -14996064.31847 -11638675.26461
  22271429.498     6614170.641 6   5153887.45521
 91  5 15  0 14 44.9980000  0  4G13G 2G12G 6
  20015310.3654   -2029530.78847  -1581450.62262
  22880601.0844    5103319.82645   3976604.90161
  21336730.6154  -15043973.46347 -11676007.03761
  22278815.7484    6653000.04345   5184144.05261
 91  5 15  0 14 59.9980000  0  4G13G 2G12G 6
  20016989.7644   -2020703.79247  -1574572.44462
  22885446.4124    5128780.54145   3996444.34961
  21327630.7404  -15091792.09347 -11713268.27761
  22286223.436     6691918.509 6   5214470.04621
 91  5 15  0 15 14.9980000  0  4G13G 2G12G 6
  20018688.7954   -2011771.54647  -1567612.25761
  22890303.154     5154296.816 5   4016327.11021
  21318549.7954  -15139514.92947 -11750454.86861
  22293648.326     6730930.853 5   5244869.18021
 91  5 15  0 15 29.9980000  0  4G13G 2G12G 6
  20020408.5374   -2002738.15347  -1560573.24962
  22895169.201     5179864.491 5   4036249.93921
  21309484.6394  -15187145.55847 -11787569.61361
  22301089.178     6770032.815 5   5275338.16421
 91  5 15  0 15 44.9980000  0  4G13G 2G12G 6
  20022144.9434   -1993611.06947  -1553461.23362
  22900042.576     5205476.155 5   4056207.03721
  21300437.5924  -15234690.94647 -11824617.94061
  22308544.865     6809216.835 5   5305871.07921
 91  5 15  0 15 59.9980000  0  4G13G 2G12G 6
  20023901.7564   -1984379.55247  -1546267.84662
  22904923.701     5231142.956 5   4076207.09321
  21291408.6544  -15282139.68247 -11861590.94562
  22316018.295     6848493.718 6   5336476.35421
 91  5 15  0 16 14.9980000  0  4G13G 2G12G 6
  20025677.5534   -1975048.76147  -1538997.10262
  22909820.7174    5256860.25345   4096246.49261
  21282397.1154  -15329495.96847 -11898491.91562
  22323509.2174    6887858.59446   5367150.19561
 91  5 15  0 16 29.9980000  0  4G13G 2G12G 6
  20027472.0374   -1965620.87947  -1531650.70261
  22914725.600     5282626.274 5   4116323.83921
  21273403.1934  -15376761.33747 -11935322.04061
  22331018.1784    6927309.27046   5397890.90261
 91  5 15  0 16 44.9980000  0  4G13G 2G12G 6
  20029285.2564   -1956093.61447  -1524226.85762
  22919636.1784    5308443.41345   4136441.03661
  21264425.8264  -15423932.94647 -11972079.11361
  22338539.8974    6966848.08946   5428700.27561
 91  5 15  0 16 59.9980000  0  4G13G 2G12G 6
  20031116.0064   -1946467.19947  -1516725.75661
  22924559.0294    5334311.31545   4156597.78061
  21255467.6474  -15471010.64847 -12008763.00761
  22346084.7174    7006474.45446   5459577.88461
 91  5 15  0 17 14.9980000  0  4G13G 2G12G 6
  20032966.1474   -1936742.75747  -1509148.26662
  22929490.826     5360229.306 5   4176793.56621
  21246526.8814  -15517994.88847 -12045374.07261
  22353639.818     7046187.452 6   5490522.99521
 91  5 15  0 17 29.9980000  0  4G13G 2G12G 6
  20034835.2094   -1926925.25347  -1501498.26462
  22934429.5684    5386192.84345   4197024.86761
  21237603.7254  -15564889.82647 -12081915.55161
  22361210.9674    7085982.22946   5521531.82361
 91  5 15  0 17 44.9980000  0  4G13G 2G12G 6
  20036723.0144   -1917005.15947  -1493768.32562
  22939384.7954    5412211.70445   4217299.23661
  21228698.1704  -15611685.39047 -12118379.59561
  22368801.248     7125868.137 5   5552611.66621
 91  5 15  0 17 59.9980000  0  4G13G 2G12G 6
  20038627.6074   -1906997.08747  -1485969.82662
  22944339.272     5438271.502 5   4237605.51721
  21219809.1234  -15658395.61347 -12154777.14662
  22376409.170     7165830.786 6   5583751.30921
 91  5 15  0 18 14.9980000  0  4G13G 2G12G 6
  20040552.6004   -1896879.36747  -1478085.89162
  22949314.318     5464393.952 5   4257960.60321
  21210940.8344  -15704998.18547 -12191090.80562
  22384029.982     7205891.822 5   5614967.61221
 91  5 15  0 18 29.9980000  0  4G13G 2G12G 6
  20042497.7404   -1886659.26447  -1470122.18062
  22954293.873     5490572.622 5   4278359.51121
  21202092.1864  -15751499.67547 -12227325.70462
  22391672.8114    7246043.77846   5646254.76261
 91  5 15  0 18 44.9980000  0  4G13G 2G12G 6
  20044459.8654   -1876349.51147  -1462088.60862
  22959283.428     5516794.926 5   4298792.42321
  21193260.6154  -15797911.96947 -12263491.09662
  22399327.0064    7286274.49645   5677603.28761
 91  5 15  0 18 59.9980000  0  4G13G 2G12G 6
  20046438.1314   -1865951.37747  -1453986.16762
  22964284.6074    5543059.79745   4319258.48461
  21184445.1314  -15844235.64947 -12299587.44362
  22406997.639     7326582.465 5   5709012.01021
 91  5 15  0 19 14.9980000  0  4G13G 2G12G 6
  20048433.3894   -1855467.49147  -1445816.91162
  22969289.2564    5569365.04945   4339756.01261
  21175647.0064  -15890472.84547 -12335616.39562
  22414681.529     7366965.109 5   5740478.90921
 91  5 15  0 19 29.9980000  0  4G13G 2G12G 6
  20050444.5924   -1844894.27347  -1437578.04162
  22974305.7724    5595714.11645   4360287.69861
  21166864.8184  -15936619.63247 -12371574.90462
  22422381.9594    7407425.85145   5772006.66061
 91  5 15  0 19 44.9980000  0  4G13G 2G12G 6
  20052475.1394   -1834223.91147  -1429263.47762
  22979326.787     5622115.213 5   4380859.90521
  21158101.8424  -15982667.21247 -12407456.10862
  22430099.600     7447972.694 5   5803601.52521
